Year,Month,Day,Hour,Minute,Value (Times are PST for temperature in C)
2012,04,06,00,00,2.30
2012,04,06,00,01,2.30
2012,04,06,00,02,2.30
2012,04,06,00,03,2.30
2012,04,06,00,04,2.30
2012,04,06,00,05,2.30
2012,04,06,00,06,2.30
2012,04,06,00,07,2.30
2012,04,06,00,08,2.30
2012,04,06,00,09,2.30
2012,04,06,00,10,2.30
2012,04,06,00,11,2.30
2012,04,06,00,12,2.30
2012,04,06,00,13,2.30
2012,04,06,00,14,2.30
2012,04,06,00,15,2.30
2012,04,06,00,16,2.30
2012,04,06,00,17,2.30
2012,04,06,00,18,2.30
2012,04,06,00,19,2.30
2012,04,06,00,20,2.30
2012,04,06,00,21,2.30
2012,04,06,00,22,2.30
2012,04,06,00,23,2.20
2012,04,06,00,24,2.20
2012,04,06,00,25,2.20
2012,04,06,00,26,2.20
2012,04,06,00,27,2.20
2012,04,06,00,28,2.20
2012,04,06,00,29,2.20
2012,04,06,00,30,2.20
2012,04,06,00,31,2.20
2012,04,06,00,32,2.20
2012,04,06,00,33,2.20
2012,04,06,00,34,2.10
2012,04,06,00,35,2.10
2012,04,06,00,36,2.10
2012,04,06,00,37,2.10
2012,04,06,00,38,2.10
2012,04,06,00,39,2.10
2012,04,06,00,40,2.10
2012,04,06,00,41,2.10
2012,04,06,00,42,2.10
2012,04,06,00,43,2.00
2012,04,06,00,44,2.00
2012,04,06,00,45,2.00
2012,04,06,00,46,2.00
2012,04,06,00,47,2.00
2012,04,06,00,48,2.00
2012,04,06,00,49,2.00
2012,04,06,00,50,2.00
2012,04,06,00,51,2.00
2012,04,06,00,52,1.90
2012,04,06,00,53,1.90
2012,04,06,00,54,1.90
2012,04,06,00,55,1.80
2012,04,06,00,56,1.80
2012,04,06,00,57,1.80
2012,04,06,00,58,1.80
2012,04,06,00,59,1.80
2012,04,06,01,00,1.70
2012,04,06,01,01,1.70
2012,04,06,01,02,1.70
2012,04,06,01,03,1.70
2012,04,06,01,04,1.70
2012,04,06,01,05,1.70
2012,04,06,01,06,1.70
2012,04,06,01,07,1.70
2012,04,06,01,08,1.70
2012,04,06,01,09,1.70
2012,04,06,01,10,1.70
2012,04,06,01,11,1.70
2012,04,06,01,12,1.70
2012,04,06,01,13,1.70
2012,04,06,01,14,1.70
2012,04,06,01,15,1.60
2012,04,06,01,16,1.70
2012,04,06,01,17,1.60
2012,04,06,01,18,1.60
2012,04,06,01,19,1.60
2012,04,06,01,20,1.60
2012,04,06,01,21,1.50
2012,04,06,01,22,1.50
2012,04,06,01,23,1.50
2012,04,06,01,24,1.50
2012,04,06,01,25,1.50
2012,04,06,01,26,1.40
2012,04,06,01,27,1.40
2012,04,06,01,28,1.40
2012,04,06,01,29,1.40
2012,04,06,01,30,1.40
2012,04,06,01,31,1.30
2012,04,06,01,32,1.30
2012,04,06,01,33,1.30
2012,04,06,01,34,1.30
2012,04,06,01,35,1.30
2012,04,06,01,36,1.30
2012,04,06,01,37,1.30
2012,04,06,01,38,1.30
2012,04,06,01,39,1.30
2012,04,06,01,40,1.30
2012,04,06,01,41,1.30
2012,04,06,01,42,1.30
2012,04,06,01,43,1.30
2012,04,06,01,44,1.30
2012,04,06,01,45,1.30
2012,04,06,01,46,1.30
2012,04,06,01,47,1.30
2012,04,06,01,48,1.30
2012,04,06,01,49,1.30
2012,04,06,01,50,1.30
2012,04,06,01,51,1.30
2012,04,06,01,52,1.30
2012,04,06,01,53,1.30
2012,04,06,01,54,1.30
2012,04,06,01,55,1.30
2012,04,06,01,56,1.30
2012,04,06,01,57,1.30
2012,04,06,01,58,1.30
2012,04,06,01,59,1.30
2012,04,06,02,00,1.30
2012,04,06,02,01,1.30
2012,04,06,02,02,1.30
2012,04,06,02,03,1.30
2012,04,06,02,04,1.30
2012,04,06,02,05,1.30
2012,04,06,02,06,1.30
2012,04,06,02,07,1.30
2012,04,06,02,08,1.30
2012,04,06,02,09,1.30
2012,04,06,02,10,1.30
2012,04,06,02,11,1.30
2012,04,06,02,12,1.30
2012,04,06,02,13,1.30
2012,04,06,02,14,1.30
2012,04,06,02,15,1.30
2012,04,06,02,16,1.30
2012,04,06,02,17,1.30
2012,04,06,02,18,1.30
2012,04,06,02,19,1.30
2012,04,06,02,20,1.30
2012,04,06,02,21,1.30
2012,04,06,02,22,1.30
2012,04,06,02,23,1.30
2012,04,06,02,24,1.30
2012,04,06,02,25,1.30
2012,04,06,02,26,1.30
2012,04,06,02,27,1.30
2012,04,06,02,28,1.30
2012,04,06,02,29,1.30
2012,04,06,02,30,1.30
2012,04,06,02,31,1.20
2012,04,06,02,32,1.20
2012,04,06,02,33,1.20
2012,04,06,02,34,1.20
2012,04,06,02,35,1.20
2012,04,06,02,36,1.20
2012,04,06,02,37,1.20
2012,04,06,02,38,1.20
2012,04,06,02,39,1.20
2012,04,06,02,40,1.20
2012,04,06,02,41,1.20
2012,04,06,02,42,1.20
2012,04,06,02,43,1.20
2012,04,06,02,44,1.20
2012,04,06,02,45,1.20
2012,04,06,02,46,1.20
2012,04,06,02,47,1.20
2012,04,06,02,48,1.20
2012,04,06,02,49,1.20
2012,04,06,02,50,1.20
2012,04,06,02,51,1.20
2012,04,06,02,52,1.10
2012,04,06,02,53,1.10
2012,04,06,02,54,1.10
2012,04,06,02,55,1.10
2012,04,06,02,56,1.10
2012,04,06,02,57,1.10
2012,04,06,02,58,1.10
2012,04,06,02,59,1.00
2012,04,06,03,00,1.00
2012,04,06,03,01,0.90
2012,04,06,03,02,0.90
2012,04,06,03,03,0.90
2012,04,06,03,04,0.90
2012,04,06,03,05,0.90
2012,04,06,03,06,0.90
2012,04,06,03,07,0.90
2012,04,06,03,08,0.90
2012,04,06,03,09,0.90
2012,04,06,03,10,0.90
2012,04,06,03,11,0.90
2012,04,06,03,12,0.90
2012,04,06,03,13,0.90
2012,04,06,03,14,0.90
2012,04,06,03,15,0.90
2012,04,06,03,16,0.90
2012,04,06,03,17,0.90
2012,04,06,03,18,0.90
2012,04,06,03,19,0.90
2012,04,06,03,20,0.90
2012,04,06,03,21,0.90
2012,04,06,03,22,0.90
2012,04,06,03,23,0.90
2012,04,06,03,24,0.90
2012,04,06,03,25,0.90
2012,04,06,03,26,0.90
2012,04,06,03,27,0.90
2012,04,06,03,28,0.90
2012,04,06,03,29,0.90
2012,04,06,03,30,0.90
2012,04,06,03,31,0.90
2012,04,06,03,32,0.80
2012,04,06,03,33,0.80
2012,04,06,03,34,0.90
2012,04,06,03,35,0.90
2012,04,06,03,36,0.90
2012,04,06,03,37,0.90
2012,04,06,03,38,0.90
2012,04,06,03,39,0.90
2012,04,06,03,40,0.90
2012,04,06,03,41,0.90
2012,04,06,03,42,0.90
2012,04,06,03,43,0.90
2012,04,06,03,44,0.90
2012,04,06,03,45,0.90
2012,04,06,03,46,0.90
2012,04,06,03,47,0.90
2012,04,06,03,48,0.90
2012,04,06,03,49,0.90
2012,04,06,03,50,0.80
2012,04,06,03,51,0.90
2012,04,06,03,52,0.90
2012,04,06,03,53,0.90
2012,04,06,03,54,0.90
2012,04,06,03,55,0.90
2012,04,06,03,56,0.90
2012,04,06,03,57,0.90
2012,04,06,03,58,0.90
2012,04,06,03,59,0.90
2012,04,06,04,00,0.90
2012,04,06,04,01,0.90
2012,04,06,04,02,0.90
2012,04,06,04,03,0.90
2012,04,06,04,04,0.90
2012,04,06,04,05,0.90
2012,04,06,04,06,0.90
2012,04,06,04,07,0.90
2012,04,06,04,08,0.90
2012,04,06,04,09,0.90
2012,04,06,04,10,0.90
2012,04,06,04,11,0.80
2012,04,06,04,12,0.80
2012,04,06,04,13,0.80
2012,04,06,04,14,0.80
2012,04,06,04,15,0.80
2012,04,06,04,16,0.80
2012,04,06,04,17,0.70
2012,04,06,04,18,0.70
2012,04,06,04,19,0.70
2012,04,06,04,20,0.70
2012,04,06,04,21,0.70
2012,04,06,04,22,0.70
2012,04,06,04,23,0.70
2012,04,06,04,24,0.70
2012,04,06,04,25,0.70
2012,04,06,04,26,0.70
2012,04,06,04,27,0.70
2012,04,06,04,28,0.70
2012,04,06,04,29,0.70
2012,04,06,04,30,0.70
2012,04,06,04,31,0.70
2012,04,06,04,32,0.70
2012,04,06,04,33,0.70
2012,04,06,04,34,0.70
2012,04,06,04,35,0.70
2012,04,06,04,36,0.60
2012,04,06,04,37,0.60
2012,04,06,04,38,0.60
2012,04,06,04,39,0.60
2012,04,06,04,40,0.60
2012,04,06,04,41,0.60
2012,04,06,04,42,0.60
2012,04,06,04,43,0.50
2012,04,06,04,44,0.60
2012,04,06,04,45,0.60
2012,04,06,04,46,0.60
2012,04,06,04,47,0.50
2012,04,06,04,48,0.50
2012,04,06,04,49,0.50
2012,04,06,04,50,0.50
2012,04,06,04,51,0.50
2012,04,06,04,52,0.50
2012,04,06,04,53,0.60
2012,04,06,04,54,0.50
2012,04,06,04,55,0.60
2012,04,06,04,56,0.60
2012,04,06,04,57,0.60
2012,04,06,04,58,0.60
2012,04,06,04,59,0.60
2012,04,06,05,00,0.60
2012,04,06,05,01,0.60
2012,04,06,05,02,0.50
2012,04,06,05,03,0.50
2012,04,06,05,04,0.50
2012,04,06,05,05,0.50
2012,04,06,05,06,0.50
2012,04,06,05,07,0.50
2012,04,06,05,08,0.50
2012,04,06,05,09,0.50
2012,04,06,05,10,0.50
2012,04,06,05,11,0.50
2012,04,06,05,12,0.50
2012,04,06,05,13,0.50
2012,04,06,05,14,0.60
2012,04,06,05,15,0.60
2012,04,06,05,16,0.60
2012,04,06,05,17,0.60
2012,04,06,05,18,0.60
2012,04,06,05,19,0.60
2012,04,06,05,20,0.50
2012,04,06,05,21,0.50
2012,04,06,05,22,0.50
2012,04,06,05,23,0.50
2012,04,06,05,24,0.50
2012,04,06,05,25,0.50
2012,04,06,05,26,0.40
2012,04,06,05,27,0.40
2012,04,06,05,28,0.40
2012,04,06,05,29,0.40
2012,04,06,05,30,0.40
2012,04,06,05,31,0.40
2012,04,06,05,32,0.40
2012,04,06,05,33,0.40
2012,04,06,05,34,0.40
2012,04,06,05,35,0.40
2012,04,06,05,36,0.40
2012,04,06,05,37,0.40
2012,04,06,05,38,0.40
2012,04,06,05,39,0.40
2012,04,06,05,40,0.40
2012,04,06,05,41,0.40
2012,04,06,05,42,0.40
2012,04,06,05,43,0.40
2012,04,06,05,44,0.40
2012,04,06,05,45,0.40
2012,04,06,05,46,0.40
2012,04,06,05,47,0.40
2012,04,06,05,48,0.50
2012,04,06,05,49,0.50
2012,04,06,05,50,0.50
2012,04,06,05,51,0.50
2012,04,06,05,52,0.50
2012,04,06,05,53,0.50
2012,04,06,05,54,0.50
2012,04,06,05,55,0.50
2012,04,06,05,56,0.50
2012,04,06,05,57,0.50
2012,04,06,05,58,0.50
2012,04,06,05,59,0.60
2012,04,06,06,00,0.60
2012,04,06,06,01,0.60
2012,04,06,06,02,0.60
2012,04,06,06,03,0.60
2012,04,06,06,04,0.60
2012,04,06,06,05,0.50
2012,04,06,06,06,0.50
2012,04,06,06,07,0.50
2012,04,06,06,08,0.50
2012,04,06,06,09,0.50
2012,04,06,06,10,0.50
2012,04,06,06,11,0.50
2012,04,06,06,12,0.50
2012,04,06,06,13,0.50
2012,04,06,06,14,0.50
2012,04,06,06,15,0.50
2012,04,06,06,16,0.50
2012,04,06,06,17,0.50
2012,04,06,06,18,0.50
2012,04,06,06,19,0.50
2012,04,06,06,20,0.50
2012,04,06,06,21,0.50
2012,04,06,06,22,0.50
2012,04,06,06,23,0.50
2012,04,06,06,24,0.50
2012,04,06,06,25,0.50
2012,04,06,06,26,0.50
2012,04,06,06,27,0.50
2012,04,06,06,28,0.50
2012,04,06,06,29,0.50
2012,04,06,06,30,0.50
2012,04,06,06,31,0.50
2012,04,06,06,32,0.50
2012,04,06,06,33,0.50
2012,04,06,06,34,0.50
2012,04,06,06,35,0.50
2012,04,06,06,36,0.50
2012,04,06,06,37,0.50
2012,04,06,06,38,0.60
2012,04,06,06,39,0.60
2012,04,06,06,40,0.60
2012,04,06,06,41,0.60
2012,04,06,06,42,0.60
2012,04,06,06,43,0.60
2012,04,06,06,44,0.60
2012,04,06,06,45,0.60
2012,04,06,06,46,0.60
2012,04,06,06,47,0.60
2012,04,06,06,48,0.60
2012,04,06,06,49,0.60
2012,04,06,06,50,0.60
2012,04,06,06,51,0.60
2012,04,06,06,52,0.60
2012,04,06,06,53,0.60
2012,04,06,06,54,0.60
2012,04,06,06,55,0.60
2012,04,06,06,56,0.60
2012,04,06,06,57,0.60
2012,04,06,06,58,0.60
2012,04,06,06,59,0.60
2012,04,06,07,00,0.60
2012,04,06,07,01,0.60
2012,04,06,07,02,0.60
2012,04,06,07,03,0.60
2012,04,06,07,04,0.60
2012,04,06,07,05,0.60
2012,04,06,07,06,0.60
2012,04,06,07,07,0.60
2012,04,06,07,08,0.60
2012,04,06,07,09,0.60
2012,04,06,07,10,0.60
2012,04,06,07,11,0.70
2012,04,06,07,12,0.70
2012,04,06,07,13,0.70
2012,04,06,07,14,0.70
2012,04,06,07,15,0.60
2012,04,06,07,16,0.60
2012,04,06,07,17,0.60
2012,04,06,07,18,0.70
2012,04,06,07,19,0.70
2012,04,06,07,20,0.70
2012,04,06,07,21,0.70
2012,04,06,07,22,0.70
2012,04,06,07,23,0.70
2012,04,06,07,24,0.70
2012,04,06,07,25,0.70
2012,04,06,07,26,0.70
2012,04,06,07,27,0.70
2012,04,06,07,28,0.70
2012,04,06,07,29,0.70
2012,04,06,07,30,0.70
2012,04,06,07,31,0.70
2012,04,06,07,32,0.70
2012,04,06,07,33,0.70
2012,04,06,07,34,0.70
2012,04,06,07,35,0.70
2012,04,06,07,36,0.70
2012,04,06,07,37,0.70
2012,04,06,07,38,0.80
2012,04,06,07,39,0.80
2012,04,06,07,40,0.80
2012,04,06,07,41,0.80
2012,04,06,07,42,0.80
2012,04,06,07,43,0.80
2012,04,06,07,44,0.80
2012,04,06,07,45,0.80
2012,04,06,07,46,0.80
2012,04,06,07,47,0.80
2012,04,06,07,48,0.80
2012,04,06,07,49,0.90
2012,04,06,07,50,0.90
2012,04,06,07,51,0.90
2012,04,06,07,52,0.90
2012,04,06,07,53,0.90
2012,04,06,07,54,0.90
2012,04,06,07,55,0.90
2012,04,06,07,56,0.90
2012,04,06,07,57,1.00
2012,04,06,07,58,1.00
2012,04,06,07,59,1.00
2012,04,06,08,00,1.10
2012,04,06,08,01,1.10
2012,04,06,08,02,1.10
2012,04,06,08,03,1.20
2012,04,06,08,04,1.20
2012,04,06,08,05,1.20
2012,04,06,08,06,1.20
2012,04,06,08,07,1.20
2012,04,06,08,08,1.20
2012,04,06,08,09,1.20
2012,04,06,08,10,1.30
2012,04,06,08,11,1.30
2012,04,06,08,12,1.30
2012,04,06,08,13,1.30
2012,04,06,08,14,1.30
2012,04,06,08,15,1.30
2012,04,06,08,16,1.30
2012,04,06,08,17,1.30
2012,04,06,08,18,1.30
2012,04,06,08,19,1.40
2012,04,06,08,20,1.40
2012,04,06,08,21,1.40
2012,04,06,08,22,1.50
2012,04,06,08,23,1.50
2012,04,06,08,24,1.50
2012,04,06,08,25,1.60
2012,04,06,08,26,1.60
2012,04,06,08,27,1.70
2012,04,06,08,28,1.70
2012,04,06,08,29,1.70
2012,04,06,08,30,1.70
2012,04,06,08,31,1.80
2012,04,06,08,32,1.80
2012,04,06,08,33,1.80
2012,04,06,08,34,1.80
2012,04,06,08,35,1.80
2012,04,06,08,36,1.80
2012,04,06,08,37,1.80
2012,04,06,08,38,1.80
2012,04,06,08,39,1.90
2012,04,06,08,40,1.90
2012,04,06,08,41,1.90
2012,04,06,08,42,1.90
2012,04,06,08,43,1.90
2012,04,06,08,44,1.90
2012,04,06,08,45,2.00
2012,04,06,08,46,2.00
2012,04,06,08,47,2.10
2012,04,06,08,48,2.10
2012,04,06,08,49,2.10
2012,04,06,08,50,2.10
2012,04,06,08,51,2.20
2012,04,06,08,52,2.20
2012,04,06,08,53,2.20
2012,04,06,08,54,2.30
2012,04,06,08,55,2.30
2012,04,06,08,56,2.30
2012,04,06,08,57,2.30
2012,04,06,08,58,2.40
2012,04,06,08,59,2.40
2012,04,06,09,00,2.40
2012,04,06,09,01,2.50
2012,04,06,09,02,2.50
2012,04,06,09,03,2.60
2012,04,06,09,04,2.60
2012,04,06,09,05,2.70
2012,04,06,09,06,2.70
2012,04,06,09,07,2.80
2012,04,06,09,08,2.80
2012,04,06,09,09,2.80
2012,04,06,09,10,2.90
2012,04,06,09,11,2.90
2012,04,06,09,12,2.90
2012,04,06,09,13,3.00
2012,04,06,09,14,3.00
2012,04,06,09,15,3.10
2012,04,06,09,16,3.10
2012,04,06,09,17,3.10
2012,04,06,09,18,3.20
2012,04,06,09,19,3.20
2012,04,06,09,20,3.30
2012,04,06,09,21,3.30
2012,04,06,09,22,3.40
2012,04,06,09,23,3.40
2012,04,06,09,24,3.50
2012,04,06,09,25,3.50
2012,04,06,09,26,3.60
2012,04,06,09,27,3.60
2012,04,06,09,28,3.70
2012,04,06,09,29,3.70
2012,04,06,09,30,3.70
2012,04,06,09,31,3.70
2012,04,06,09,32,3.80
2012,04,06,09,33,3.80
2012,04,06,09,34,3.80
2012,04,06,09,35,3.80
2012,04,06,09,36,3.80
2012,04,06,09,37,3.90
2012,04,06,09,38,3.90
2012,04,06,09,39,4.00
2012,04,06,09,40,4.10
2012,04,06,09,41,4.10
2012,04,06,09,42,4.20
2012,04,06,09,43,4.20
2012,04,06,09,44,4.30
2012,04,06,09,45,4.30
2012,04,06,09,46,4.40
2012,04,06,09,47,4.50
2012,04,06,09,48,4.60
2012,04,06,09,49,4.70
2012,04,06,09,50,4.80
2012,04,06,09,51,4.80
2012,04,06,09,52,4.90
2012,04,06,09,53,5.00
2012,04,06,09,54,5.10
2012,04,06,09,55,5.10
2012,04,06,09,56,5.20
2012,04,06,09,57,5.20
2012,04,06,09,58,5.30
2012,04,06,09,59,5.30
2012,04,06,10,00,5.40
2012,04,06,10,01,5.40
2012,04,06,10,02,5.40
2012,04,06,10,03,5.50
2012,04,06,10,04,5.50
2012,04,06,10,05,5.60
2012,04,06,10,06,5.60
2012,04,06,10,07,5.60
2012,04,06,10,08,5.60
2012,04,06,10,09,5.70
2012,04,06,10,10,5.70
2012,04,06,10,11,5.70
2012,04,06,10,12,5.80
2012,04,06,10,13,5.80
2012,04,06,10,14,5.90
2012,04,06,10,15,5.90
2012,04,06,10,16,6.00
2012,04,06,10,17,6.10
2012,04,06,10,18,6.10
2012,04,06,10,19,6.10
2012,04,06,10,20,6.20
2012,04,06,10,21,6.20
2012,04,06,10,22,6.30
2012,04,06,10,23,6.30
2012,04,06,10,24,6.30
2012,04,06,10,25,6.40
2012,04,06,10,26,6.40
2012,04,06,10,27,6.40
2012,04,06,10,28,6.40
2012,04,06,10,29,6.40
2012,04,06,10,30,6.40
2012,04,06,10,31,6.40
2012,04,06,10,32,6.40
2012,04,06,10,33,6.40
2012,04,06,10,34,6.40
2012,04,06,10,35,6.40
2012,04,06,10,36,6.40
2012,04,06,10,37,6.40
2012,04,06,10,38,6.30
2012,04,06,10,39,6.30
2012,04,06,10,40,6.30
2012,04,06,10,41,6.30
2012,04,06,10,42,6.30
2012,04,06,10,43,6.30
2012,04,06,10,44,6.30
2012,04,06,10,45,6.30
2012,04,06,10,46,6.30
2012,04,06,10,47,6.30
2012,04,06,10,48,6.30
2012,04,06,10,49,6.30
2012,04,06,10,50,6.30
2012,04,06,10,51,6.30
2012,04,06,10,52,6.30
2012,04,06,10,53,6.30
2012,04,06,10,54,6.30
2012,04,06,10,55,6.30
2012,04,06,10,56,6.40
2012,04,06,10,57,6.40
2012,04,06,10,58,6.40
2012,04,06,10,59,6.40
2012,04,06,11,00,6.40
2012,04,06,11,01,6.40
2012,04,06,11,02,6.40
2012,04,06,11,03,6.40
2012,04,06,11,04,6.40
2012,04,06,11,05,6.40
2012,04,06,11,06,6.40
2012,04,06,11,07,6.50
2012,04,06,11,08,6.60
2012,04,06,11,09,6.60
2012,04,06,11,10,6.70
2012,04,06,11,11,6.80
2012,04,06,11,12,6.80
2012,04,06,11,13,6.80
2012,04,06,11,14,6.80
2012,04,06,11,15,6.90
2012,04,06,11,16,6.90
2012,04,06,11,17,6.90
2012,04,06,11,18,6.90
2012,04,06,11,19,6.90
2012,04,06,11,20,6.90
2012,04,06,11,21,6.90
2012,04,06,11,22,6.90
2012,04,06,11,23,7.00
2012,04,06,11,24,7.00
2012,04,06,11,25,7.00
2012,04,06,11,26,7.10
2012,04,06,11,27,7.10
2012,04,06,11,28,7.20
2012,04,06,11,29,7.20
2012,04,06,11,30,7.20
2012,04,06,11,31,7.20
2012,04,06,11,32,7.20
2012,04,06,11,33,7.20
2012,04,06,11,34,7.20
2012,04,06,11,35,7.20
2012,04,06,11,36,7.20
2012,04,06,11,37,7.20
2012,04,06,11,38,7.20
2012,04,06,11,39,7.20
2012,04,06,11,40,7.20
2012,04,06,11,41,7.20
2012,04,06,11,42,7.30
2012,04,06,11,43,7.30
2012,04,06,11,44,7.30
2012,04,06,11,45,7.40
2012,04,06,11,46,7.40
2012,04,06,11,47,7.40
2012,04,06,11,48,7.40
2012,04,06,11,49,7.40
2012,04,06,11,50,7.50
2012,04,06,11,51,7.50
2012,04,06,11,52,7.50
2012,04,06,11,53,7.60
2012,04,06,11,54,7.60
2012,04,06,11,55,7.60
2012,04,06,11,56,7.70
2012,04,06,11,57,7.70
2012,04,06,11,58,7.80
2012,04,06,11,59,7.90
2012,04,06,12,00,8.00
2012,04,06,12,01,8.10
2012,04,06,12,02,8.20
2012,04,06,12,03,8.20
2012,04,06,12,04,8.30
2012,04,06,12,05,8.30
2012,04,06,12,06,8.30
2012,04,06,12,07,8.40
2012,04,06,12,08,8.40
2012,04,06,12,09,8.40
2012,04,06,12,10,8.50
2012,04,06,12,11,8.60
2012,04,06,12,12,8.70
2012,04,06,12,13,8.80
2012,04,06,12,14,8.90
2012,04,06,12,15,9.00
2012,04,06,12,16,9.10
2012,04,06,12,17,9.20
2012,04,06,12,18,9.30
2012,04,06,12,19,9.30
2012,04,06,12,20,9.30
2012,04,06,12,21,9.30
2012,04,06,12,22,9.30
2012,04,06,12,23,9.30
2012,04,06,12,24,9.30
2012,04,06,12,25,9.30
2012,04,06,12,26,9.30
2012,04,06,12,27,9.30
2012,04,06,12,28,9.40
2012,04,06,12,29,9.40
2012,04,06,12,30,9.40
2012,04,06,12,31,9.40
2012,04,06,12,32,9.40
2012,04,06,12,33,9.40
2012,04,06,12,34,9.40
2012,04,06,12,35,9.30
2012,04,06,12,36,9.30
2012,04,06,12,37,9.20
2012,04,06,12,38,9.10
2012,04,06,12,39,9.00
2012,04,06,12,40,8.90
2012,04,06,12,41,8.90
2012,04,06,12,42,8.80
2012,04,06,12,43,8.80
2012,04,06,12,44,8.70
2012,04,06,12,45,8.60
2012,04,06,12,46,8.60
2012,04,06,12,47,8.50
2012,04,06,12,48,8.50
2012,04,06,12,49,8.40
2012,04,06,12,50,8.40
2012,04,06,12,51,8.30
2012,04,06,12,52,8.30
2012,04,06,12,53,8.20
2012,04,06,12,54,8.20
2012,04,06,12,55,8.20
2012,04,06,12,56,8.10
2012,04,06,12,57,8.10
2012,04,06,12,58,8.10
2012,04,06,12,59,8.00
2012,04,06,13,00,7.90
2012,04,06,13,01,7.90
2012,04,06,13,02,7.90
2012,04,06,13,03,7.80
2012,04,06,13,04,7.80
2012,04,06,13,05,7.80
2012,04,06,13,06,7.80
2012,04,06,13,07,7.70
2012,04,06,13,08,7.70
2012,04,06,13,09,7.70
2012,04,06,13,10,7.70
2012,04,06,13,11,7.70
2012,04,06,13,12,7.70
2012,04,06,13,13,7.70
2012,04,06,13,14,7.70
2012,04,06,13,15,7.70
2012,04,06,13,16,7.70
2012,04,06,13,17,7.70
2012,04,06,13,18,7.70
2012,04,06,13,19,7.70
2012,04,06,13,20,7.70
2012,04,06,13,21,7.60
2012,04,06,13,22,7.60
2012,04,06,13,23,7.60
2012,04,06,13,24,7.60
2012,04,06,13,25,7.60
2012,04,06,13,26,7.60
2012,04,06,13,27,7.60
2012,04,06,13,28,7.60
2012,04,06,13,29,7.50
2012,04,06,13,30,7.50
2012,04,06,13,31,7.60
2012,04,06,13,32,7.50
2012,04,06,13,33,7.40
2012,04,06,13,34,7.40
2012,04,06,13,35,7.40
2012,04,06,13,36,7.40
2012,04,06,13,37,7.30
2012,04,06,13,38,7.30
2012,04,06,13,39,7.20
2012,04,06,13,40,7.20
2012,04,06,13,41,7.10
2012,04,06,13,42,7.00
2012,04,06,13,43,7.00
2012,04,06,13,44,6.90
2012,04,06,13,45,6.80
2012,04,06,13,46,6.80
2012,04,06,13,47,6.70
2012,04,06,13,48,6.70
2012,04,06,13,49,6.60
2012,04,06,13,50,6.60
2012,04,06,13,51,6.50
2012,04,06,13,52,6.50
2012,04,06,13,53,6.50
2012,04,06,13,54,6.50
2012,04,06,13,55,6.40
2012,04,06,13,56,6.40
2012,04,06,13,57,6.40
2012,04,06,13,58,6.30
2012,04,06,13,59,6.30
2012,04,06,14,00,6.30
2012,04,06,14,01,6.30
2012,04,06,14,02,6.30
2012,04,06,14,03,6.30
2012,04,06,14,04,6.30
2012,04,06,14,05,6.30
2012,04,06,14,06,6.30
2012,04,06,14,07,6.30
2012,04,06,14,08,6.30
2012,04,06,14,09,6.30
2012,04,06,14,10,6.30
2012,04,06,14,11,6.20
2012,04,06,14,12,6.20
2012,04,06,14,13,6.20
2012,04,06,14,14,6.20
2012,04,06,14,15,6.20
2012,04,06,14,16,6.20
2012,04,06,14,17,6.20
2012,04,06,14,18,6.30
2012,04,06,14,19,6.40
2012,04,06,14,20,6.40
2012,04,06,14,21,6.50
2012,04,06,14,22,6.60
2012,04,06,14,23,6.70
2012,04,06,14,24,6.80
2012,04,06,14,25,6.90
2012,04,06,14,26,7.00
2012,04,06,14,27,7.00
2012,04,06,14,28,7.10
2012,04,06,14,29,7.10
2012,04,06,14,30,7.10
2012,04,06,14,31,7.10
2012,04,06,14,32,7.00
2012,04,06,14,33,7.00
2012,04,06,14,34,7.00
2012,04,06,14,35,7.10
2012,04,06,14,36,7.10
2012,04,06,14,37,7.10
2012,04,06,14,38,7.10
2012,04,06,14,39,7.10
2012,04,06,14,40,7.20
2012,04,06,14,41,7.20
2012,04,06,14,42,7.20
2012,04,06,14,43,7.20
2012,04,06,14,44,7.10
2012,04,06,14,45,7.10
2012,04,06,14,46,7.00
2012,04,06,14,47,6.90
2012,04,06,14,48,6.90
2012,04,06,14,49,6.80
2012,04,06,14,50,6.80
2012,04,06,14,51,6.70
2012,04,06,14,52,6.70
2012,04,06,14,53,6.60
2012,04,06,14,54,6.60
2012,04,06,14,55,6.50
2012,04,06,14,56,6.40
2012,04,06,14,57,6.30
2012,04,06,14,58,6.30
2012,04,06,14,59,6.30
2012,04,06,15,00,6.30
2012,04,06,15,01,6.20
2012,04,06,15,02,6.20
2012,04,06,15,03,6.10
2012,04,06,15,04,6.10
2012,04,06,15,05,6.00
2012,04,06,15,06,6.00
2012,04,06,15,07,5.90
2012,04,06,15,08,5.90
2012,04,06,15,09,5.90
2012,04,06,15,10,5.90
2012,04,06,15,11,5.90
2012,04,06,15,12,5.90
2012,04,06,15,13,5.90
2012,04,06,15,14,5.90
2012,04,06,15,15,5.90
2012,04,06,15,16,5.90
2012,04,06,15,17,5.90
2012,04,06,15,18,5.90
2012,04,06,15,19,6.00
2012,04,06,15,20,6.00
2012,04,06,15,21,6.00
2012,04,06,15,22,5.90
2012,04,06,15,23,5.90
2012,04,06,15,30,6.00
2012,04,06,15,31,6.00
2012,04,06,15,32,6.00
2012,04,06,15,33,6.00
2012,04,06,15,34,6.10
2012,04,06,15,35,6.10
2012,04,06,15,36,6.10
2012,04,06,15,37,6.10
2012,04,06,15,38,6.10
2012,04,06,15,39,6.10
2012,04,06,15,40,6.10
2012,04,06,15,41,6.10
2012,04,06,15,42,6.10
2012,04,06,15,43,6.20
2012,04,06,15,44,6.20
2012,04,06,15,45,6.20
2012,04,06,15,46,6.20
2012,04,06,15,47,6.20
2012,04,06,15,48,6.30
2012,04,06,15,49,6.30
2012,04,06,15,50,6.30
2012,04,06,15,51,6.30
2012,04,06,15,52,6.30
2012,04,06,15,53,6.40
2012,04,06,15,54,6.40
2012,04,06,15,55,6.40
2012,04,06,15,56,6.40
2012,04,06,15,57,6.40
2012,04,06,15,58,6.30
2012,04,06,15,59,6.30
2012,04,06,16,00,6.20
2012,04,06,16,01,6.20
2012,04,06,16,02,6.10
2012,04,06,16,03,6.10
2012,04,06,16,04,6.10
2012,04,06,16,05,6.10
2012,04,06,16,06,6.10
2012,04,06,16,07,6.10
2012,04,06,16,08,6.10
2012,04,06,16,09,6.20
2012,04,06,16,10,6.20
2012,04,06,16,11,6.30
2012,04,06,16,12,6.30
2012,04,06,16,13,6.30
2012,04,06,16,14,6.30
2012,04,06,16,15,6.30
2012,04,06,16,16,6.30
2012,04,06,16,17,6.30
2012,04,06,16,18,6.30
2012,04,06,16,19,6.30
2012,04,06,16,20,6.30
2012,04,06,16,21,6.30
2012,04,06,16,22,6.40
2012,04,06,16,23,6.40
2012,04,06,16,24,6.50
2012,04,06,16,25,6.50
2012,04,06,16,26,6.50
2012,04,06,16,27,6.60
2012,04,06,16,28,6.60
2012,04,06,16,29,6.60
2012,04,06,16,30,6.60
2012,04,06,16,31,6.60
2012,04,06,16,32,6.60
2012,04,06,16,33,6.60
2012,04,06,16,34,6.60
2012,04,06,16,35,6.60
2012,04,06,16,36,6.60
2012,04,06,16,37,6.60
2012,04,06,16,38,6.60
2012,04,06,16,39,6.70
2012,04,06,16,40,6.70
2012,04,06,16,41,6.70
2012,04,06,16,42,6.70
2012,04,06,16,43,6.70
2012,04,06,16,44,6.70
2012,04,06,16,45,6.70
2012,04,06,16,46,6.70
2012,04,06,16,47,6.70
2012,04,06,16,48,6.60
2012,04,06,16,49,6.60
2012,04,06,16,50,6.60
2012,04,06,16,51,6.60
2012,04,06,16,52,6.60
2012,04,06,16,53,6.70
2012,04,06,16,54,6.70
2012,04,06,16,55,6.70
2012,04,06,16,56,6.80
2012,04,06,16,57,6.80
2012,04,06,16,58,6.80
2012,04,06,16,59,6.80
2012,04,06,17,00,6.80
2012,04,06,17,01,6.80
2012,04,06,17,02,6.80
2012,04,06,17,03,6.80
2012,04,06,17,04,6.80
2012,04,06,17,05,6.90
2012,04,06,17,06,6.80
2012,04,06,17,07,6.80
2012,04,06,17,08,6.80
2012,04,06,17,09,6.80
2012,04,06,17,10,6.80
2012,04,06,17,11,6.80
2012,04,06,17,12,6.80
2012,04,06,17,13,6.80
2012,04,06,17,14,6.80
2012,04,06,17,15,6.80
2012,04,06,17,16,6.80
2012,04,06,17,17,6.80
2012,04,06,17,18,6.80
2012,04,06,17,19,6.80
2012,04,06,17,20,6.80
2012,04,06,17,21,6.90
2012,04,06,17,22,6.90
2012,04,06,17,23,7.00
2012,04,06,17,24,7.10
2012,04,06,17,25,7.20
2012,04,06,17,26,7.20
2012,04,06,17,27,7.20
2012,04,06,17,28,7.30
2012,04,06,17,29,7.30
2012,04,06,17,30,7.30
2012,04,06,17,31,7.30
2012,04,06,17,32,7.30
2012,04,06,17,33,7.30
2012,04,06,17,34,7.30
2012,04,06,17,35,7.30
2012,04,06,17,36,7.30
2012,04,06,17,37,7.30
2012,04,06,17,38,7.30
2012,04,06,17,39,7.30
2012,04,06,17,40,7.40
2012,04,06,17,41,7.40
2012,04,06,17,42,7.50
2012,04,06,17,43,7.60
2012,04,06,17,44,7.70
2012,04,06,17,45,7.80
2012,04,06,17,46,7.90
2012,04,06,17,47,7.90
2012,04,06,17,48,8.00
2012,04,06,17,49,8.00
2012,04,06,17,50,8.10
2012,04,06,17,51,8.10
2012,04,06,17,52,8.00
2012,04,06,17,53,8.00
2012,04,06,17,54,8.10
2012,04,06,17,55,8.10
2012,04,06,17,56,8.10
2012,04,06,17,57,8.10
2012,04,06,17,58,8.10
2012,04,06,17,59,8.10
2012,04,06,18,00,8.10
2012,04,06,18,01,8.10
2012,04,06,18,02,8.10
2012,04,06,18,03,8.10
2012,04,06,18,04,8.10
2012,04,06,18,05,8.10
2012,04,06,18,06,8.10
2012,04,06,18,07,8.10
2012,04,06,18,08,8.10
2012,04,06,18,09,8.10
2012,04,06,18,10,8.10
2012,04,06,18,11,8.10
2012,04,06,18,12,8.00